This demonstration page uses our WeatherBlox Daily Observations layout. Learn more.

Left ArrowRight Arrow

44.8408, -93.29828

Hourly Observations for March 24, 2017

Temp ( °F °C ) Dew Point ( °F °C ) Humidity (%) Winds ( mph kmh ) Pressure ( in mb ) Visibility ( mi km ) Precip ( " mm )
12:18 am 00:18 Cloudy with Light Rain 37 3 36 2 93 93 ENE 6 9 29.94 1014 3 5 0.00 0.00
12:53 am 00:53 Cloudy with Light Rain 39 3.9 36 2.2 89 89 ENE 5 7 29.90 1012 3 5 0.03 0.76
1:53 am 01:53 Cloudy with Mist and Fog 39 3.9 36 2.2 89 89 ENE 6 9 29.87 1012 5 8 0.00 0.03
2:53 am 02:53 Cloudy with Mist and Fog 39 3.9 36 2.2 89 89 SE 7 11 29.87 1011 5 8 0.00 0.00
3:53 am 03:53 Cloudy with Mist and Fog 39 3.9 36 2.2 89 89 E 6 9 29.85 1011 6 10 0.01 0.25
4:34 am 04:34 Cloudy with Mist and Fog 39 4 36 2 87 87 ENE 3 6 29.85 1011 6 10 0.00 0.00
4:53 am 04:53 Cloudy with Mist and Fog 39 3.9 36 2.2 89 89 N 7 11 29.87 1012 6 10 0.00 0.00
5:53 am 05:53 Cloudy with Mist and Fog 39 3.9 36 2.2 89 89 NNE 7 11 29.90 1013 4 6 0.00 0.00
6:15 am 06:15 Cloudy with Mist and Fog 38 3.3 36 2.2 93 93 N 8 13 29.94 1014 3 4 0.00 0.00
6:20 am 06:20 Cloudy with Mist and Fog 37 3 36 2 93 93 N 8 13 29.94 1014 3 4 0.00 0.00
6:39 am 06:39 Cloudy with Mist and Fog 38 3.3 36 2.2 93 93 N 10 17 29.97 1015 3 4 0.00 0.00
6:53 am 06:53 Cloudy with Mist and Fog 38 3.3 36 2.2 93 93 N 9 15 29.91 1013 3 4 0.00 0.00
7:12 am 07:12 Cloudy with Mist and Fog 37 3 36 2 93 93 NNE 9 15 29.97 1015 3 5 0.00 0.00
7:53 am 07:53 Cloudy with Drizzle 38 3.3 35 1.7 89 89 N 8 13 29.94 1014 4 6 0.00 0.03
8:53 am 08:53 Cloudy with Mist and Fog 38 3.3 35 1.7 89 89 NNE 12 19 29.94 1014 6 10 0.00 0.03
9:33 am 09:33 Cloudy 39 3.9 35 1.7 86 86 NNE 9 15 30.00 1016 7 11 0.00 0.00
9:53 am 09:53 Cloudy 39 3.9 35 1.7 86 86 N 9 15 29.99 1016 7 11 0.00 0.00
10:03 am 10:03 Cloudy 39 4 36 2 87 87 N 12 19 30.00 1016 7 11 0.00 0.00
10:21 am 10:21 Cloudy 39 3.9 35 1.7 86 86 NNE 10 17 30.03 1017 7 11 0.00 0.00
10:53 am 10:53 Cloudy with Mist and Fog 39 3.9 35 1.7 86 86 N 10 17 30.03 1017 6 10 0.00 0.00
11:53 am 11:53 Cloudy 40 4.4 35 1.7 83 83 NE 13 20 30.04 1017 9 14 0.00 0.00
12:10 pm 12:10 Cloudy 41 5 36 2 81 81 NNE 15 24 30.03 1017 8 13 0.00 0.00
12:53 pm 12:53 Cloudy 42 5.6 35 1.7 76 76 N 13 20 30.07 1018 9 14 0.00 0.00
1:01 pm 13:01 Cloudy 42 5.6 35 1.7 76 76 N 12 19 30.06 1018 9 14 0.00 0.00
1:19 pm 13:19 Cloudy 43 6.1 35 1.7 74 74 NNE 14 22 30.06 1018 9 14 0.00 0.00
1:40 pm 13:40 Cloudy 43 6 36 2 76 76 NE 13 20 30.06 1018 10 16 0.00 0.00
1:53 pm 13:53 Cloudy 44 6.7 35 1.7 71 71 NE 10 17 30.08 1019 10 16 0.00 0.00
2:47 pm 14:47 Cloudy 45 7 36 2 71 71 NNE 13 20 30.06 1018 10 16 0.00 0.00
2:53 pm 14:53 Cloudy 45 7.2 36 2.2 71 71 N 12 19 30.10 1019 10 16 0.00 0.00
3:53 pm 15:53 Cloudy 45 7.2 36 2.2 71 71 N 13 20 30.09 1019 9 14 0.00 0.00
4:53 pm 16:53 Cloudy 44 6.7 35 1.7 71 71 NNE 14 22 30.10 1019 10 16 0.00 0.00
5:53 pm 17:53 Cloudy 43 6.1 34 1.1 71 71 NNE 12 19 30.13 1020 10 16 0.00 0.00
6:53 pm 18:53 Cloudy 42 5.6 34 1.1 73 73 NNE 12 19 30.15 1021 10 16 0.00 0.00
7:53 pm 19:53 Cloudy 41 5 33 0.6 73 73 NNE 13 20 30.17 1022 10 16 0.00 0.00
8:12 pm 20:12 Cloudy 39 4 34 1 81 81 NNE 13 20 30.21 1023 10 16 0.00 0.00
8:53 pm 20:53 Cloudy 40 4.4 33 0.6 77 77 NE 13 20 30.20 1023 10 16 0.00 0.00
9:53 pm 21:53 Cloudy 40 4.4 33 0.6 77 77 NE 12 19 30.19 1022 10 16 0.00 0.00
10:20 pm 22:20 Cloudy 39 4 34 1 81 81 ENE 12 19 30.21 1023 10 16 0.00 0.00
10:53 pm 22:53 Cloudy 40 4.4 33 0.6 77 77 ENE 13 20 30.19 1022 10 16 0.00 0.00
11:09 pm 23:09 Cloudy 39 3.9 32 0 76 76 E 13 20 30.21 1023 10 16 0.00 0.00
11:53 pm 23:53 Cloudy 39 3.9 31 -0.6 73 73 ENE 10 17 30.19 1022 10 16 0.00 0.00

Powered by AerisWeather